CW6099 Weather Reports


Display with metric or nautical units.
time (UTC)temp
F
wind
direction
speed
MPH
gust
MPH
rain 1hr
in
rain 24hr
in
rain mn
in
humidity
%
barometer
mb
20260902043721 67 234 5.0 8.0 0.00 0.00 0.00 82 1015.4
20260902043254 67 234 5.0 7.0 0.00 0.00 0.00 82 1015.5
20260902043207 67 238 5.0 7.0 0.00 0.00 0.00 82 1015.5
20260902042657 67 235 5.0 6.0 0.00 0.00 0.00 82 1015.6
20260902042255 67 229 5.0 6.0 0.00 0.00 0.00 81 1015.7
20260902042207 67 221 5.0 7.0 0.00 0.00 0.00 81 1015.8
20260902041657 68 230 5.0 9.0 0.00 0.00 0.00 80 1015.8
20260902041255 68 229 6.0 9.0 0.00 0.00 0.00 80 1015.8
20260902041206 68 221 5.0 11.0 0.00 0.00 0.00 80 1015.8
20260902040715 68 232 8.0 11.0 0.00 0.00 0.00 80 1015.8
20260902040250 68 244 10.0 11.0 0.00 0.00 0.00 80 1016.0
20260902040203 68 242 10.0 12.0 0.00 0.00 0.00 80 1016.0
20260902035652 68 236 9.0 14.0 0.00 0.00 0.00 80 1015.9
20260902035250 68 236 11.0 14.0 0.00 0.00 0.00 80 1016.0
20260902035206 68 238 9.0 14.0 0.00 0.00 0.00 80 1016.0
20260902034656 68 240 5.0 8.0 0.00 0.00 0.00 79 1015.5
20260902034253 68 252 5.0 8.0 0.00 0.00 0.00 79 1015.5
20260902034225 68 234 5.0 8.0 0.00 0.00 0.00 79 1015.5
20260902033655 68 240 5.0 8.0 0.00 0.00 0.00 78 1015.6
20260902033253 69 234 7.0 8.0 0.00 0.00 0.00 78 1015.6
20260902033206 69 242 7.0 8.0 0.00 0.00 0.00 78 1015.6
20260902032716 69 231 6.0 8.0 0.00 0.00 0.00 77 1015.7
20260902032251 69 236 6.0 9.0 0.00 0.00 0.00 77 1015.6
20260902032202 69 236 6.0 9.0 0.00 0.00 0.00 77 1015.5
20260902031653 70 238 6.0 9.0 0.00 0.00 0.00 76 1015.6
20260902031251 70 243 7.0 8.0 0.00 0.00 0.00 75 1015.6
20260902031224 70 234 7.0 9.0 0.00 0.00 0.00 75 1015.6
20260902030652 71 229 6.0 9.0 0.00 0.00 0.00 74 1015.4
20260902030308 71 229 7.0 9.0 0.00 0.00 0.00 73 1015.4
20260902030159 71 246 6.0 9.0 0.00 0.00 0.00 72 1015.4
20260902025652 71 253 5.0 7.0 0.00 0.00 0.00 71 1015.4
20260902025306 72 246 4.0 7.0 0.00 0.00 0.00 70 1015.3
20260902025159 72 252 5.0 7.0 0.00 0.00 0.00 69 1015.3
20260902024649 72 240 5.0 6.0 0.00 0.00 0.00 69 1015.3
20260902024307 72 232 5.0 7.0 0.00 0.00 0.00 68 1015.3
20260902024158 73 234 5.0 7.0 0.00 0.00 0.00 68 1015.3
20260902023708 73 202 5.0 8.0 0.00 0.00 0.00 66 1015.1
20260902023305 73 198 6.0 8.0 0.00 0.00 0.00 66 1015.1
20260902023159 73 216 6.0 8.0 0.00 0.00 0.00 66 1015.1
20260902022729 74 219 5.0 8.0 0.00 0.00 0.00 65 1015.0
20260902022306 74 205 6.0 9.0 0.00 0.00 0.00 65 1015.0
20260902022156 74 221 6.0 10.0 0.00 0.00 0.00 64 1014.9
20260902021706 75 209 6.0 12.0 0.00 0.00 0.00 63 1014.8
20260902021303 75 207 8.0 12.0 0.00 0.00 0.00 63 1014.8
20260902021155 75 184 8.0 12.0 0.00 0.00 0.00 63 1014.8
20260902020649 75 182 8.0 12.0 0.00 0.00 0.00 62 1014.7
20260902020301 76 178 9.0 13.0 0.00 0.00 0.00 62 1014.6
20260902020214 76 165 8.0 12.0 0.00 0.00 0.00 62 1014.6
20260902015722 76 187 8.0 15.0 0.00 0.00 0.00 61 1014.5
20260902015252 76 184 10.0 16.0 0.00 0.00 0.00 61 1014.4
20260902015208 76 188 10.0 16.0 0.00 0.00 0.00 60 1014.4
20260902014718 77 192 9.0 16.0 0.00 0.00 0.00 60 1014.3
20260902014254 77 192 10.0 18.0 0.00 0.00 0.00 59 1014.2
20260902014207 77 187 10.0 18.0 0.00 0.00 0.00 59 1014.2
20260902013713 78 196 11.0 17.0 0.00 0.00 0.00 58 1014.2
20260902013327 78 190 10.0 17.0 0.00 0.00 0.00 57 1014.2
20260902013156 78 178 10.0 17.0 0.00 0.00 0.00 57 1014.2
20260902012705 79 205 10.0 15.0 0.00 0.00 0.00 55 1014.2
20260902012308 80 167 10.0 23.0 0.00 0.00 0.00 55 1014.2
20260902012154 80 201 11.0 23.0 0.00 0.00 0.00 54 1014.3
20260902011724 80 201 13.0 23.0 0.00 0.00 0.00 53 1014.3
20260902011300 81 195 16.0 23.0 0.00 0.00 0.00 52 1014.3
20260902011150 81 202 16.0 22.0 0.00 0.00 0.00 52 1014.4
20260902010659 82 200 15.0 24.0 0.00 0.00 0.00 51 1014.4
20260902010316 82 202 14.0 19.0 0.00 0.00 0.00 50 1014.4
20260902010228 82 202 14.0 19.0 0.00 0.00 0.00 50 1014.4
20260902005715 83 218 10.0 20.0 0.00 0.00 0.00 50 1014.4
20260902005249 83 204 11.0 17.0 0.00 0.00 0.00 49 1014.5
20260902005202 83 227 11.0 21.0 0.00 0.00 0.00 49 1014.4
20260902004652 83 186 11.0 21.0 0.00 0.00 0.00 48 1014.3
20260902004249 84 202 14.0 19.0 0.00 0.00 0.00 48 1014.3
20260902004201 84 200 15.0 21.0 0.00 0.00 0.00 48 1014.3
20260902003655 84 196 13.0 22.0 0.00 0.00 0.00 48 1014.3
20260902003327 84 215 12.0 22.0 0.00 0.00 0.00 48 1014.4
20260902003203 84 201 12.0 22.0 0.00 0.00 0.00 48 1014.4
20260902002652 84 184 13.0 24.0 0.00 0.00 0.00 49 1014.5
20260902002324 84 177 14.0 25.0 0.00 0.00 0.00 48 1014.4
20260902002158 84 153 15.0 25.0 0.00 0.00 0.00 47 1014.4
20260902001708 84 175 17.0 25.0 0.00 0.00 0.00 47 1014.3
20260902001305 84 172 14.0 23.0 0.00 0.00 0.00 47 1014.4
20260902001218 84 186 16.0 23.0 0.00 0.00 0.00 47 1014.4
20260902000727 85 214 16.0 26.0 0.00 0.00 0.00 47 1014.4
20260902000301 86 215 17.0 26.0 0.00 0.00 0.00 46 1014.4
20260902000154 86 178 19.0 26.0 0.00 0.00 0.00 45 1014.5
20260901235703 88 227 16.0 28.0 0.00 0.00 0.00 44 1014.4
20260901235320 89 169 14.0 29.0 0.00 0.00 0.00 44 1014.1
20260901235152 89 173 9.0 14.0 0.00 0.00 0.00 43 1014.1
20260901234722 90 176 8.0 11.0 0.00 0.00 0.00 43 1014.0
20260901234255 90 173 9.0 12.0 0.00 0.00 0.00 42 1014.0
20260901234228 90 178 9.0 12.0 0.00 0.00 0.00 42 1014.0
20260901233655 90 150 8.0 10.0 0.00 0.00 0.00 42 1014.0
20260901233252 91 141 8.0 11.0 0.00 0.00 0.00 42 1014.0
20260901233202 91 180 8.0 12.0 0.00 0.00 0.00 42 1014.1
20260901232727 91 185 7.0 11.0 0.00 0.00 0.00 43 1014.1
20260901232306 92 184 6.0 9.0 0.00 0.00 0.00 42 1014.1
20260901232156 92 192 6.0 9.0 0.00 0.00 0.00 43 1014.1
20260901231649 93 199 3.0 7.0 0.00 0.00 0.00 41 1014.0
20260901231302 93 278 2.0 7.0 0.00 0.00 0.00 40 1013.9
20260901231158 93 292 3.0 7.0 0.00 0.00 0.00 43 1013.9
20260901230707 93 257 4.0 7.0 0.00 0.00 0.00 38 1013.9
20260901230304 94 281 4.0 9.0 0.00 0.00 0.00 38 1013.9
20260901230158 94 284 4.0 9.0 0.00 0.00 0.00 38 1013.9
20260901225707 94 250 6.0 16.0 0.00 0.00 0.00 39 1013.8
20260901225325 94 207 6.0 16.0 0.00 0.00 0.00 38 1013.9
20260901225157 94 192 10.0 16.0 0.00 0.00 0.00 38 1014.0
20260901224704 94 128 6.0 10.0 0.00 0.00 0.00 37 1013.9
20260901224321 94 163 7.0 10.0 0.00 0.00 0.00 39 1013.9
20260901224153 94 164 6.0 10.0 0.00 0.00 0.00 37 1013.9
20260901223704 94 173 6.0 11.0 0.00 0.00 0.00 37 1013.9
20260901223320 94 234 6.0 16.0 0.00 0.00 0.00 36 1014.0
20260901223152 94 223 8.0 16.0 0.00 0.00 0.00 36 1014.0
20260901222701 94 226 8.0 15.0 0.00 0.00 0.00 37 1014.1
20260901222258 94 215 8.0 12.0 0.00 0.00 0.00 39 1014.1
20260901222155 94 207 8.0 14.0 0.00 0.00 0.00 38 1014.1
20260901221705 94 176 4.0 10.0 0.00 0.00 0.00 37 1014.1
20260901221303 93 182 8.0 10.0 0.00 0.00 0.00 36 1014.1
20260901221155 93 180 8.0 11.0 0.00 0.00 0.00 39 1014.1
20260901220706 93 153 5.0 9.0 0.00 0.00 0.00 39 1014.1
20260901220304 93 166 6.0 10.0 0.00 0.00 0.00 40 1014.2
20260901220156 92 168 7.0 10.0 0.00 0.00 0.00 39 1014.2
20260901215727 92 167 7.0 10.0 0.00 0.00 0.00 38 1014.2
20260901215305 92 189 7.0 10.0 0.00 0.00 0.00 39 1014.3
20260901215155 92 163 6.0 10.0 0.00 0.00 0.00 38 1014.3
20260901214705 92 142 5.0 10.0 0.00 0.00 0.00 36 1014.4
20260901214301 92 187 6.0 10.0 0.00 0.00 0.00 37 1014.5
20260901214154 92 156 7.0 10.0 0.00 0.00 0.00 40 1014.4
20260901213704 92 148 5.0 9.0 0.00 0.00 0.00 39 1014.5
20260901213301 92 138 5.0 9.0 0.00 0.00 0.00 36 1014.4
20260901213156 92 153 5.0 9.0 0.00 0.00 0.00 36 1014.5
20260901212705 92 188 3.0 9.0 0.00 0.00 0.00 37 1014.5
20260901212306 92 162 4.0 9.0 0.00 0.00 0.00 35 1014.6
20260901212155 92 196 6.0 9.0 0.00 0.00 0.00 35 1014.5
20260901211705 92 171 4.0 8.0 0.00 0.00 0.00 37 1014.7
20260901211322 93 172 5.0 8.0 0.00 0.00 0.00 37 1014.7
20260901211153 92 195 6.0 8.0 0.00 0.00 0.00 36 1014.7
20260901210703 93 207 4.0 12.0 0.00 0.00 0.00 33 1014.7
20260901210301 93 218 7.0 13.0 0.00 0.00 0.00 33 1014.7
20260901210154 93 156 8.0 13.0 0.00 0.00 0.00 33 1014.8
20260901205703 94 197 10.0 14.0 0.00 0.00 0.00 33 1014.8
20260901205301 94 174 9.0 14.0 0.00 0.00 0.00 35 1015.0
20260901205153 94 170 10.0 14.0 0.00 0.00 0.00 34 1014.9
20260901204705 93 192 8.0 14.0 0.00 0.00 0.00 38 1014.9
20260901204258 93 144 7.0 14.0 0.00 0.00 0.00 35 1015.0
20260901204154 93 182 6.0 14.0 0.00 0.00 0.00 35 1015.0
20260901203703 94 200 10.0 14.0 0.00 0.00 0.00 34 1015.1
20260901203301 94 217 7.0 13.0 0.00 0.00 0.00 35 1015.1
20260901203153 94 202 7.0 11.0 0.00 0.00 0.00 35 1015.1
20260901202702 94 171 9.0 15.0 0.00 0.00 0.00 39 1015.2
20260901202300 94 162 10.0 16.0 0.00 0.00 0.00 36 1015.3
20260901202152 94 155 10.0 16.0 0.00 0.00 0.00 37 1015.3
20260901201702 93 182 10.0 18.0 0.00 0.00 0.00 35 1015.4
20260901201259 93 196 11.0 19.0 0.00 0.00 0.00 34 1015.6
20260901201150 93 210 12.0 19.0 0.00 0.00 0.00 35 1015.7
20260901200701 93 216 12.0 19.0 0.00 0.00 0.00 35 1015.8
20260901200259 94 162 10.0 18.0 0.00 0.00 0.00 34 1015.7
20260901200154 94 205 10.0 18.0 0.00 0.00 0.00 34 1015.8
20260901195702 94 158 11.0 19.0 0.00 0.00 0.00 34 1015.8
20260901195318 94 171 12.0 19.0 0.00 0.00 0.00 36 1015.8
20260901195150 94 227 15.0 19.0 0.00 0.00 0.00 36 1015.8
20260901194659 94 167 12.0 21.0 0.00 0.00 0.00 34 1015.9
20260901194317 94 194 12.0 21.0 0.00 0.00 0.00 35 1016.0
20260901194208 94 178 13.0 21.0 0.00 0.00 0.00 35 1016.0
20260901193716 94 150 13.0 19.0 0.00 0.00 0.00 35 1016.1
20260901193251 94 165 11.0 19.0 0.00 0.00 0.00 36 1016.0
20260901193224 94 147 10.0 20.0 0.00 0.00 0.00 37 1016.0
20260901192652 94 205 9.0 20.0 0.00 0.00 0.00 35 1016.1
20260901192250 93 173 12.0 19.0 0.00 0.00 0.00 37 1016.1
20260901192201 93 165 12.0 18.0 0.00 0.00 0.00 39 1016.1
20260901191650 92 180 12.0 15.0 0.00 0.00 0.00 35 1016.2
20260901191308 92 140 9.0 16.0 0.00 0.00 0.00 37 1016.2
20260901191159 92 170 9.0 16.0 0.00 0.00 0.00 35 1016.1
20260901190652 93 213 11.0 20.0 0.00 0.00 0.00 35 1016.2
20260901190305 94 173 14.0 20.0 0.00 0.00 0.00 36 1016.2
20260901190202 94 169 14.0 20.0 0.00 0.00 0.00 36 1016.1
20260901185652 93 195 8.0 21.0 0.00 0.00 0.00 36 1016.3
20260901185309 93 167 12.0 22.0 0.00 0.00 0.00 34 1016.3
20260901185201 93 180 13.0 22.0 0.00 0.00 0.00 37 1016.4
20260901184650 93 176 13.0 22.0 0.00 0.00 0.00 36 1016.4
20260901184305 93 180 14.0 24.0 0.00 0.00 0.00 36 1016.4
20260901184157 93 173 15.0 24.0 0.00 0.00 0.00 36 1016.4
20260901183708 93 217 10.0 19.0 0.00 0.00 0.00 38 1016.4
20260901183305 93 194 13.0 23.0 0.00 0.00 0.00 36 1016.4
20260901183158 93 182 13.0 23.0 0.00 0.00 0.00 40 1016.4
20260901182727 92 174 14.0 23.0 0.00 0.00 0.00 37 1016.5
20260901182305 92 181 15.0 21.0 0.00 0.00 0.00 40 1016.5
20260901182214 92 196 12.0 25.0 0.00 0.00 0.00 40 1016.4
20260901181723 91 182 10.0 16.0 0.00 0.00 0.00 42 1016.5
20260901181259 90 184 9.0 14.0 0.00 0.00 0.00 45 1016.5
20260901181212 90 171 9.0 14.0 0.00 0.00 0.00 45 1016.5
20260901180700 90 198 9.0 15.0 0.00 0.00 0.00 46 1016.7
20260901180251 90 224 11.0 15.0 0.00 0.00 0.00 46 1016.7
20260901180204 90 216 10.0 15.0 0.00 0.00 0.00 46 1016.7
20260901175658 90 229 9.0 13.0 0.00 0.00 0.00 45 1016.8
20260901175251 90 229 8.0 14.0 0.00 0.00 0.00 47 1017.0
20260901175208 90 231 6.0 14.0 0.00 0.00 0.00 47 1017.0
20260901174657 90 203 10.0 17.0 0.00 0.00 0.00 44 1017.1
20260901174253 90 160 11.0 17.0 0.00 0.00 0.00 45 1017.1
20260901174206 90 189 12.0 17.0 0.00 0.00 0.00 46 1017.1
20260901173655 90 200 11.0 16.0 0.00 0.00 0.00 46 1017.1
20260901173252 89 198 8.0 16.0 0.00 0.00 0.00 49 1017.2
20260901173205 89 192 8.0 16.0 0.00 0.00 0.00 50 1017.3
20260901172654 89 202 12.0 16.0 0.00 0.00 0.00 49 1017.4
20260901172251 89 190 11.0 16.0 0.00 0.00 0.00 50 1017.4
20260901172203 88 219 11.0 16.0 0.00 0.00 0.00 50 1017.4
20260901171653 88 223 10.0 17.0 0.00 0.00 0.00 50 1017.5
20260901171310 88 180 8.0 14.0 0.00 0.00 0.00 52 1017.5
20260901171206 87 216 9.0 14.0 0.00 0.00 0.00 50 1017.5
20260901170656 87 244 10.0 14.0 0.00 0.00 0.00 52 1017.6
20260901170253 87 215 9.0 12.0 0.00 0.00 0.00 55 1017.6
20260901170205 87 184 8.0 12.0 0.00 0.00 0.00 53 1017.6
20260901165655 86 211 8.0 12.0 0.00 0.00 0.00 52 1017.6
20260901165252 86 163 8.0 14.0 0.00 0.00 0.00 55 1017.6
20260901165205 85 202 8.0 14.0 0.00 0.00 0.00 55 1017.6
20260901164655 85 202 9.0 14.0 0.00 0.00 0.00 56 1017.6
20260901164312 84 199 11.0 14.0 0.00 0.00 0.00 56 1017.6
20260901164204 84 186 10.0 14.0 0.00 0.00 0.00 56 1017.6
20260901163654 84 213 9.0 17.0 0.00 0.00 0.00 55 1017.6
20260901163251 84 188 9.0 17.0 0.00 0.00 0.00 57 1017.6
20260901163204 84 215 10.0 17.0 0.00 0.00 0.00 57 1017.6
20260901162658 83 202 6.0 12.0 0.00 0.00 0.00 59 1017.6
20260901162310 83 171 7.0 12.0 0.00 0.00 0.00 60 1017.6
20260901162205 83 166 8.0 12.0 0.00 0.00 0.00 58 1017.7
20260901161655 82 190 9.0 13.0 0.00 0.00 0.00 59 1017.7
20260901161252 82 195 8.0 15.0 0.00 0.00 0.00 58 1017.7
20260901161204 82 187 8.0 15.0 0.00 0.00 0.00 59 1017.7
20260901160714 82 211 9.0 15.0 0.00 0.00 0.00 59 1017.7
20260901160250 82 175 8.0 12.0 0.00 0.00 0.00 61 1017.7
20260901160203 82 194 8.0 13.0 0.00 0.00 0.00 61 1017.7
20260901155653 81 172 6.0 12.0 0.00 0.00 0.00 61 1017.7
20260901155310 81 177 6.0 14.0 0.00 0.00 0.00 61 1017.7
20260901155201 81 177 5.0 14.0 0.00 0.00 0.00 61 1017.7
20260901154650 80 189 10.0 14.0 0.00 0.00 0.00 63 1017.8
20260901154306 80 172 11.0 13.0 0.00 0.00 0.00 62 1017.8
20260901154159 80 167 10.0 13.0 0.00 0.00 0.00 64 1017.8
20260901153653 79 203 8.0 13.0 0.00 0.00 0.00 64 1017.7
20260901153307 79 180 8.0 12.0 0.00 0.00 0.00 65 1017.8
20260901153203 79 169 7.0 14.0 0.00 0.00 0.00 65 1017.8
20260901152654 78 180 8.0 12.0 0.00 0.00 0.00 67 1017.8
20260901152251 78 202 8.0 12.0 0.00 0.00 0.00 67 1017.9
20260901152204 78 192 8.0 12.0 0.00 0.00 0.00 66 1017.9
20260901151654 78 192 8.0 12.0 0.00 0.00 0.00 67 1017.9
20260901151250 78 182 8.0 12.0 0.00 0.00 0.00 68 1018.0
20260901151202 78 179 7.0 11.0 0.00 0.00 0.00 67 1017.9
20260901150651 77 157 8.0 11.0 0.00 0.00 0.00 67 1017.8
20260901150327 78 171 5.0 13.0 0.00 0.00 0.00 68 1017.9
20260901150159 77 136 6.0 13.0 0.00 0.00 0.00 69 1017.9
20260901145708 77 195 7.0 13.0 0.00 0.00 0.00 69 1017.8
20260901145306 76 142 6.0 10.0 0.00 0.00 0.00 70 1017.8
20260901145156 76 136 5.0 9.0 0.00 0.00 0.00 70 1017.8
20260901144650 75 169 6.0 9.0 0.00 0.00 0.00 73 1017.9
20260901144303 75 149 4.0 9.0 0.00 0.00 0.00 73 1018.0
20260901144200 75 134 5.0 9.0 0.00 0.00 0.00 75 1018.0
20260901143708 74 145 5.0 8.0 0.00 0.00 0.00 75 1018.0
20260901143305 73 190 4.0 8.0 0.00 0.00 0.00 75 1018.1
20260901143218 73 205 5.0 8.0 0.00 0.00 0.00 76 1018.0
20260901142707 73 211 4.0 9.0 0.00 0.00 0.00 77 1018.1
20260901142305 72 187 7.0 9.0 0.00 0.00 0.00 80 1018.1
20260901142155 72 195 7.0 9.0 0.00 0.00 0.00 80 1018.1
20260901141705 71 196 5.0 8.0 0.00 0.00 0.00 83 1018.0
20260901141302 71 204 5.0 7.0 0.00 0.00 0.00 83 1018.0
20260901141155 71 184 4.0 7.0 0.00 0.00 0.00 85 1018.0
20260901140706 70 201 5.0 7.0 0.00 0.00 0.00 84 1018.0
20260901140302 69 238 4.0 7.0 0.00 0.00 0.00 86 1018.0
20260901140215 69 207 5.0 7.0 0.00 0.00 0.00 87 1018.1
20260901135704 69 200 4.0 6.0 0.00 0.00 0.00 87 1018.1
20260901135258 68 234 3.0 6.0 0.00 0.00 0.00 89 1018.1
20260901135155 68 239 3.0 7.0 0.00 0.00 0.00 89 1018.1
20260901134705 68 219 4.0 7.0 0.00 0.00 0.00 91 1018.0
20260901134301 67 232 4.0 7.0 0.00 0.00 0.00 92 1018.0
20260901134152 67 254 4.0 7.0 0.00 0.00 0.00 92 1018.0
20260901133702 67 198 3.0 6.0 0.00 0.00 0.00 92 1018.0
20260901133259 66 178 5.0 6.0 0.00 0.00 0.00 93 1017.9
20260901133213 66 178 4.0 6.0 0.00 0.00 0.00 93 1017.9
20260901132721 66 194 4.0 6.0 0.00 0.00 0.00 93 1017.8
20260901132256 65 200 3.0 5.0 0.00 0.00 0.00 93 1017.8
20260901132209 65 194 3.0 5.0 0.00 0.00 0.00 94 1017.8
20260901131718 65 238 4.0 5.0 0.00 0.00 0.00 95 1017.9
20260901131254 64 242 3.0 7.0 0.00 0.00 0.00 95 1017.9
20260901131206 64 238 3.0 7.0 0.00 0.00 0.00 96 1017.9
20260901130656 64 231 4.0 7.0 0.00 0.00 0.00 96 1018.0
20260901130253 63 235 4.0 5.0 0.00 0.00 0.00 96 1017.9
20260901130202 63 236 4.0 5.0 0.00 0.00 0.00 96 1017.8
20260901125656 63 220 3.0 5.0 0.00 0.00 0.00 96 1017.7
20260901125254 62 221 4.0 6.0 0.00 0.00 0.00 96 1017.7
20260901125206 62 227 4.0 6.0 0.00 0.00 0.00 96 1017.7
20260901124656 62 217 4.0 5.0 0.00 0.00 0.00 95 1017.5
20260901124253 62 219 4.0 5.0 0.00 0.00 0.00 95 1017.5
20260901124206 62 219 4.0 5.0 0.00 0.00 0.00 95 1017.4
20260901123714 61 252 4.0 5.0 0.00 0.00 0.00 95 1017.4
20260901123309 61 248 4.0 5.0 0.00 0.00 0.00 95 1017.4
20260901123221 61 244 4.0 5.0 0.00 0.00 0.00 95 1017.4
20260901122709 62 250 3.0 6.0 0.00 0.00 0.00 95 1017.4
20260901122326 62 248 3.0 7.0 0.00 0.00 0.00 94 1017.5
20260901122158 62 261 3.0 7.0 0.00 0.00 0.00 94 1017.4
20260901121708 62 262 4.0 6.0 0.00 0.00 0.00 94 1017.4
20260901121306 62 246 4.0 7.0 0.00 0.00 0.00 94 1017.3
20260901121158 62 241 4.0 7.0 0.00 0.00 0.00 94 1017.3
20260901120651 62 253 5.0 7.0 0.00 0.00 0.00 94 1017.3
20260901120305 62 246 5.0 7.0 0.00 0.00 0.00 94 1017.2
20260901120202 62 246 5.0 6.0 0.00 0.00 0.00 94 1017.2
20260901115652 62 232 3.0 7.0 0.00 0.00 0.00 94 1017.1
20260901115309 62 236 4.0 8.0 0.00 0.00 0.00 94 1017.2
20260901115202 62 254 5.0 8.0 0.00 0.00 0.00 94 1017.2
20260901114651 62 261 6.0 8.0 0.00 0.00 0.00 94 1017.2
20260901114308 62 228 4.0 7.0 0.00 0.00 0.00 94 1017.2
20260901114200 62 211 4.0 9.0 0.00 0.00 0.00 93 1017.2
20260901113651 62 263 3.0 9.0 0.00 0.00 0.00 93 1017.3
20260901113308 63 281 7.0 9.0 0.00 0.00 0.00 93 1017.1
20260901113159 62 271 6.0 8.0 0.00 0.00 0.00 93 1017.1
20260901112728 63 271 4.0 7.0 0.00 0.00 0.00 93 1017.1
20260901112305 63 240 5.0 6.0 0.00 0.00 0.00 92 1017.0
20260901112152 63 240 4.0 5.0 0.00 0.00 0.00 92 1017.0
20260901111703 63 262 4.0 6.0 0.00 0.00 0.00 93 1017.0
20260901111321 63 251 0.0 2.0 0.00 0.00 0.00 93 1017.0
20260901111156 63 277 0.0 2.0 0.00 0.00 0.00 93 1017.0
20260901110708 63 277 0.0 3.0 0.00 0.00 0.00 93 1017.0
20260901110304 63 277 2.0 3.0 0.00 0.00 0.00 92 1016.9
20260901110154 63 277 2.0 3.0 0.00 0.00 0.00 92 1016.9
20260901105704 63 277 2.0 3.0 0.00 0.00 0.00 92 1017.0
20260901105301 63 246 2.0 3.0 0.00 0.00 0.00 92 1016.9
20260901105153 63 213 2.0 3.0 0.00 0.00 0.00 92 1016.9
20260901104702 63 148 0.0 2.0 0.00 0.00 0.00 92 1016.9
20260901104259 64 148 0.0 5.0 0.00 0.00 0.00 92 1016.8
20260901104152 64 148 0.0 5.0 0.00 0.00 0.00 92 1016.8
20260901103701 64 153 3.0 5.0 0.00 0.00 0.00 92 1016.8
20260901103258 64 21 1.0 2.0 0.00 0.00 0.00 92 1016.8
20260901103151 64 302 1.0 2.0 0.00 0.00 0.00 92 1016.8
20260901102720 64 302 0.0 2.0 0.00 0.00 0.00 92 1017.0
20260901102254 64 302 0.0 3.0 0.00 0.00 0.00 92 1017.0
20260901102227 64 302 1.0 3.0 0.00 0.00 0.00 91 1017.0
20260901101700 64 302 2.0 3.0 0.00 0.00 0.00 91 1017.1
20260901101257 64 302 0.0 2.0 0.00 0.00 0.00 91 1017.1
20260901101207 64 302 0.0 2.0 0.00 0.00 0.00 91 1017.1
20260901100657 64 302 1.0 2.0 0.00 0.00 0.00 91 1017.1
20260901100312 64 281 1.0 2.0 0.00 0.00 0.00 91 1017.1
20260901100203 64 281 1.0 2.0 0.00 0.00 0.00 91 1017.1
20260901095652 65 297 1.0 3.0 0.00 0.00 0.00 91 1017.2
20260901095309 65 298 2.0 4.0 0.00 0.00 0.00 90 1017.2
20260901095222 65 298 2.0 4.0 0.00 0.00 0.00 90 1017.2
20260901094651 65 298 3.0 4.0 0.00 0.00 0.00 90 1017.3
20260901094307 65 289 2.0 3.0 0.00 0.00 0.00 89 1017.2
20260901094158 65 284 2.0 3.0 0.00 0.00 0.00 89 1017.3
20260901093706 65 308 0.0 5.0 0.00 0.00 0.00 88 1017.3
20260901093304 65 318 3.0 5.0 0.00 0.00 0.00 88 1017.3
20260901093159 65 303 4.0 5.0 0.00 0.00 0.00 88 1017.3
20260901092709 66 296 3.0 4.0 0.00 0.00 0.00 88 1017.3
20260901092307 66 255 1.0 5.0 0.00 0.00 0.00 87 1017.4
20260901092157 66 340 1.0 5.0 0.00 0.00 0.00 87 1017.3
20260901091707 66 323 3.0 5.0 0.00 0.00 0.00 87 1017.3
20260901091304 66 312 3.0 5.0 0.00 0.00 0.00 87 1017.4
20260901091157 66 303 3.0 5.0 0.00 0.00 0.00 87 1017.4
20260901090707 66 288 4.0 5.0 0.00 0.00 0.00 86 1017.4
20260901090303 66 326 4.0 5.0 0.00 0.00 0.00 87 1017.5
20260901090155 66 329 4.0 4.0 0.00 0.00 0.00 87 1017.4
20260901085705 66 337 3.0 4.0 0.00 0.01 0.00 86 1017.4
20260901085300 66 311 3.0 5.0 0.00 0.01 0.00 86 1017.4
20260901085153 66 290 3.0 5.0 0.00 0.01 0.00 86 1017.4
20260901084707 67 279 3.0 5.0 0.00 0.01 0.00 85 1017.5
20260901084320 67 293 4.0 5.0 0.00 0.01 0.00 85 1017.6
20260901084155 67 296 4.0 5.0 0.00 0.01 0.00 85 1017.6
20260901083705 67 265 3.0 5.0 0.00 0.01 0.00 84 1017.6
20260901083301 67 295 4.0 5.0 0.00 0.01 0.00 83 1017.7
20260901083214 67 304 3.0 5.0 0.00 0.01 0.00 83 1017.6
20260901082703 68 267 3.0 7.0 0.00 0.01 0.00 83 1017.7
20260901082318 68 285 4.0 8.0 0.00 0.01 0.00 83 1017.8
20260901082210 68 290 4.0 9.0 0.00 0.01 0.00 83 1017.8
20260901081700 68 295 5.0 10.0 0.00 0.01 0.00 82 1018.0
20260901081254 68 277 6.0 11.0 0.00 0.01 0.00 82 1018.0
20260901081207 68 289 7.0 11.0 0.00 0.01 0.00 82 1018.0
20260901080657 68 281 7.0 11.0 0.00 0.01 0.00 82 1018.1
20260901080254 68 264 7.0 11.0 0.00 0.01 0.00 81 1018.2
20260901080226 68 323 7.0 11.0 0.00 0.01 0.00 81 1018.1
20260901075655 69 288 8.0 13.0 0.00 0.14 0.00 81 1018.3
20260901075332 69 304 8.0 13.0 0.00 0.14 0.00 81 1018.3
20260901075203 69 267 9.0 13.0 0.00 0.14 0.00 80 1018.4
20260901074653 69 284 9.0 13.0 0.00 0.14 0.00 80 1018.4
20260901074308 69 297 10.0 13.0 0.00 0.14 0.00 79 1018.3
20260901074205 69 302 9.0 13.0 0.00 0.14 0.00 79 1018.3
20260901073656 69 295 9.0 13.0 0.00 0.14 0.00 79 1018.3
20260901073312 69 292 8.0 14.0 0.00 0.14 0.00 78 1018.3
20260901073223 69 279 8.0 14.0 0.00 0.14 0.00 78 1018.3
20260901072651 70 262 10.0 15.0 0.00 0.14 0.00 78 1018.4
20260901072309 70 263 9.0 15.0 0.00 0.14 0.00 77 1018.4
20260901072200 70 299 9.0 15.0 0.00 0.14 0.00 77 1018.4
20260901071710 70 276 7.0 18.0 0.00 0.14 0.00 77 1018.4
20260901071306 70 262 11.0 18.0 0.00 0.14 0.00 76 1018.4
20260901071159 70 293 13.0 18.0 0.00 0.14 0.00 76 1018.4
20260901070710 70 300 8.0 18.0 0.00 0.14 0.00 76 1018.4
20260901070306 71 284 11.0 21.0 0.00 0.14 0.00 76 1018.4
20260901070159 71 269 10.0 21.0 0.00 0.14 0.00 76 1018.4
20260901065653 71 294 13.0 21.0 0.00 0.34 0.00 77 1018.4
20260901065306 70 288 12.0 21.0 0.00 0.34 0.00 77 1018.3
20260901065202 70 300 13.0 21.0 0.00 0.34 0.00 78 1018.3
20260901064731 70 290 10.0 16.0 0.00 0.34 0.00 83 1018.5
20260901064323 70 259 9.0 16.0 0.00 0.34 0.00 83 1018.4
20260901064218 70 284 8.0 10.0 0.00 0.34 0.00 83 1018.3
20260901063706 70 332 5.0 8.0 0.00 0.34 0.00 81 1017.7
20260901063303 70 302 3.0 5.0 0.00 0.34 0.00 82 1017.5
20260901063156 70 309 2.0 5.0 0.00 0.34 0.00 82 1017.4
20260901062705 70 163 4.0 6.0 0.00 0.34 0.00 81 1017.3
20260901062309 71 155 5.0 7.0 0.00 0.34 0.00 81 1017.2
20260901062155 71 159 5.0 7.0 0.00 0.34 0.00 80 1017.2
20260901061704 71 150 5.0 7.0 0.00 0.34 0.00 80 1017.1
20260901061301 71 111 1.0 5.0 0.00 0.34 0.00 78 1017.1
20260901061154 71 128 1.0 6.0 0.00 0.34 0.00 79 1017.1
20260901060705 71 278 2.0 6.0 0.00 0.34 0.00 78 1017.2
20260901060302 72 308 3.0 7.0 0.00 0.34 0.00 80 1017.3
20260901060154 72 269 2.0 7.0 0.00 0.34 0.00 80 1017.3
20260901055708 72 165 4.0 7.0 0.00 0.34 0.34 80 1017.2
20260901055301 72 132 1.0 3.0 0.00 0.34 0.34 78 1017.1
20260901055157 72 144 0.0 1.0 0.00 0.34 0.34 78 1017.0
20260901054707 72 14 0.0 2.0 0.00 0.34 0.34 78 1016.9
20260901054303 72 14 0.0 3.0 0.00 0.34 0.34 75 1016.7
20260901054156 72 14 0.0 3.0 0.00 0.34 0.34 73 1016.7
20260901053705 72 15 1.0 5.0 0.00 0.34 0.34 72 1016.6
20260901053302 72 22 3.0 5.0 0.00 0.34 0.34 74 1016.5
20260901053156 72 17 3.0 5.0 0.00 0.34 0.34 74 1016.5
20260901052704 72 27 2.0 4.0 0.00 0.34 0.34 75 1016.4
20260901052300 73 344 2.0 4.0 0.00 0.34 0.34 75 1016.4
20260901052154 73 329 2.0 4.0 0.00 0.34 0.34 75 1016.3
20260901051704 73 347 2.0 5.0 0.00 0.34 0.34 73 1016.3
20260901051320 73 31 4.0 6.0 0.00 0.34 0.34 70 1016.3
20260901051155 72 37 4.0 6.0 0.00 0.34 0.34 70 1016.3
20260901050706 73 40 4.0 5.0 0.00 0.34 0.34 71 1016.3
20260901050302 73 45 3.0 4.0 0.00 0.34 0.34 71 1016.3
20260901050155 73 44 3.0 4.0 0.00 0.34 0.34 71 1016.3
20260901045705 73 36 2.0 4.0 0.00 0.34 0.34 73 1016.1
20260901045258 73 360 2.0 4.0 0.00 0.34 0.34 71 1016.1
20260901045209 73 355 2.0 3.0 0.00 0.34 0.34 71 1016.1
20260901044658 74 360 2.0 5.0 0.00 0.34 0.34 70 1016.1
20260901044254 74 30 3.0 6.0 0.00 0.34 0.34 67 1016.3
20260901044207 74 34 3.0 6.0 0.00 0.34 0.34 67 1016.3